Phillips, WI

9:21 AM CDT on March 30, 2017 (GMT -0500)
Price County

Weather History for KPBH - March, 2013

Change the Weather History Date:

Tuesday, March 19, 2013

  Actual Average Record
Temperature  
Mean Temperature 20 °F -  
Max Temperature 28 °F 35 °F 78 °F (2012)
Min Temperature 12 °F 16 °F 6 °F (2006)
Degree Days  
Heating Degree Days 45    
Moisture  
Dew Point 6 °F    
Average Humidity 62    
Maximum Humidity 93    
Minimum Humidity 31    
Precipitation  
Precipitation 0.00 in - - ()
Sea Level Pressure  
Sea Level Pressure 29.74 in    
Wind  
Wind Speed 10 mph (WNW)    
Max Wind Speed 16 mph    
Max Gust Speed 26 mph    
Visibility 5 miles    
Events Snow    
Averages and records for this station are not official NWS values.
T = Trace of Precipitation, MM = Missing Value Source: NWS Daily Summary

Daily Weather History Graph

Daily Weather History Graph

Search for Another Location

Airport or City:

Trip Planner

Search our weather history database for the weather conditions in past years. The results will help you decide how hot, cold, wet, or windy it might be!

Date:

Astronomy

Mar. 19, 2013 Rise Set
Actual Time 7:06 AM CDT 7:13 PM CDT
Civil Twilight 6:36 AM CDT 7:42 PM CDT
Nautical Twilight 6:01 AM CDT 8:17 PM CDT
Astronomical Twilight 5:26 AM CDT 8:53 PM CDT
Moon 11:39 AM CDT (3/19) 2:17 AM CDT (3/19)
Length of Visible Light 13h 06m
Length of Day
12h 07m
Waxing Crescent, 50% of the Moon is Illuminated
Mar 19
Waxing Crescent
Mar 19
First Quarter
Mar 27
Full
Apr 2
Last Quarter
Apr 10
New

Hourly Weather History & Observations

Time (CDT) Temp. Windchill Dew Point Humidity Pressure Visibility Wind Dir Wind Speed Gust Speed Precip Events Conditions
12:15 AM 17.6 °F 5.7 °F 15.8 °F 93% 29.53 in 1.5 mi WSW 10.4 mph - N/A Snow Light Snow
12:35 AM 17.6 °F 6.4 °F 15.8 °F 93% 29.53 in 1.8 mi WSW 9.2 mph - N/A Snow Light Snow
12:55 AM 17.6 °F 6.4 °F 15.8 °F 93% 29.53 in 2.0 mi WSW 9.2 mph - N/A Snow Light Snow
1:15 AM 17.6 °F 6.4 °F 15.8 °F 93% 29.53 in 2.5 mi WSW 9.2 mph - N/A Snow Light Snow
1:35 AM 17.6 °F 8.2 °F 15.8 °F 93% 29.53 in 2.5 mi West 6.9 mph - N/A Snow Light Snow
1:55 AM 17.6 °F 6.4 °F 14.0 °F 86% 29.53 in 3.0 mi West 9.2 mph - N/A Snow Light Snow
2:15 AM 17.6 °F 8.2 °F 14.0 °F 86% 29.54 in 2.5 mi West 6.9 mph 16.1 mph N/A Snow Light Snow
2:55 AM 15.8 °F 5.1 °F 12.2 °F 86% 29.55 in 4.0 mi West 8.1 mph 17.3 mph N/A Snow Light Snow
3:15 AM 15.8 °F 6.1 °F 12.2 °F 86% 29.56 in 2.5 mi West 6.9 mph 16.1 mph N/A Snow Light Snow
3:35 AM 15.8 °F 3.4 °F 10.4 °F 79% 29.57 in 2.5 mi West 10.4 mph 19.6 mph N/A Snow Light Snow
3:55 AM 15.8 °F 4.2 °F 10.4 °F 79% 29.57 in 2.5 mi WNW 9.2 mph 21.9 mph N/A Snow Light Snow
4:15 AM 15.8 °F 3.4 °F 10.4 °F 79% 29.57 in 2.5 mi West 10.4 mph - N/A Snow Light Snow
4:35 AM 14.0 °F 0.5 °F 10.4 °F 86% 29.58 in 3.0 mi WNW 11.5 mph 20.7 mph N/A Snow Light Snow
4:55 AM 14.0 °F 2.9 °F 10.4 °F 86% 29.59 in 3.0 mi West 8.1 mph 19.6 mph N/A Snow Light Snow
5:15 AM 14.0 °F 0.5 °F 8.6 °F 79% 29.59 in 2.5 mi West 11.5 mph 18.4 mph N/A Snow Light Snow
5:35 AM 14.0 °F 3.9 °F 8.6 °F 79% 29.60 in 2.5 mi West 6.9 mph 19.6 mph N/A Snow Light Snow
5:55 AM 12.2 °F 0.7 °F 8.6 °F 85% 29.61 in 3.0 mi WNW 8.1 mph 19.6 mph N/A Snow Light Snow
6:15 AM 12.2 °F 0.7 °F 8.6 °F 85% 29.62 in 3.0 mi West 8.1 mph - N/A Snow Light Snow
6:35 AM 12.2 °F -1.0 °F 8.6 °F 85% 29.64 in 3.0 mi WNW 10.4 mph - N/A Snow Light Snow
6:55 AM 12.2 °F 2.9 °F 8.6 °F 85% 29.64 in 3.0 mi WNW 5.8 mph 21.9 mph N/A Snow Light Snow
7:15 AM 12.2 °F -0.2 °F 8.6 °F 85% 29.65 in 2.5 mi WNW 9.2 mph 24.2 mph N/A Snow Light Snow
7:35 AM 12.2 °F -0.2 °F 6.8 °F 79% 29.67 in 3.0 mi West 9.2 mph 18.4 mph N/A Snow Light Snow
7:55 AM 12.2 °F -1.0 °F 6.8 °F 79% 29.67 in 3.0 mi West 10.4 mph 18.4 mph N/A Snow Light Snow
8:15 AM 12.2 °F -0.2 °F 6.8 °F 79% 29.68 in 4.0 mi West 9.2 mph 19.6 mph N/A Snow Light Snow
8:35 AM 12.2 °F -0.2 °F 6.8 °F 79% 29.69 in 3.0 mi West 9.2 mph 18.4 mph N/A Snow Light Snow
8:55 AM 12.2 °F 0.7 °F 8.6 °F 85% 29.69 in 1.8 mi West 8.1 mph 19.6 mph N/A Snow Light Snow
9:15 AM 14.0 °F 2.0 °F 6.8 °F 73% 29.70 in 2.5 mi WNW 9.2 mph 21.9 mph N/A Snow Light Snow
9:35 AM 12.2 °F 1.7 °F 6.8 °F 79% 29.71 in 2.5 mi WNW 6.9 mph 19.6 mph N/A Snow Light Snow
9:55 AM 15.8 °F 4.2 °F 8.6 °F 73% 29.72 in 7.0 mi West 9.2 mph 16.1 mph N/A   Overcast
10:15 AM 15.8 °F 2.1 °F 8.6 °F 73% 29.73 in 7.0 mi West 12.7 mph 21.9 mph N/A Snow Light Snow
10:35 AM 15.8 °F 4.2 °F 8.6 °F 73% 29.73 in 7.0 mi West 9.2 mph 19.6 mph N/A Snow Light Snow
10:55 AM 17.6 °F 4.3 °F 8.6 °F 68% 29.73 in 2.0 mi West 12.7 mph 20.7 mph N/A Snow Light Snow
11:15 AM 17.6 °F 3.7 °F 8.6 °F 68% 29.74 in 2.5 mi West 13.8 mph 19.6 mph N/A Snow Light Snow
11:35 AM 19.4 °F 7.9 °F 8.6 °F 63% 29.75 in 0.5 mi West 10.4 mph 19.6 mph N/A Snow Light Snow
11:55 AM 21.2 °F 7.8 °F 8.6 °F 58% 29.76 in 3.0 mi West 15.0 mph 19.6 mph N/A Snow Light Snow
12:15 PM 19.4 °F 6.6 °F 8.6 °F 63% 29.77 in 0.8 mi WNW 12.7 mph 24.2 mph N/A Snow Light Snow
12:35 PM 21.2 °F 7.8 °F 8.6 °F 58% 29.77 in 1.8 mi WNW 15.0 mph 23.0 mph N/A Snow Light Snow
12:55 PM 23.0 °F 12.4 °F 8.6 °F 54% 29.78 in 1.2 mi WNW 10.4 mph 25.3 mph N/A Snow Light Snow
1:15 PM 24.8 °F - 8.6 °F 50% 29.78 in 2.0 mi North - - N/A Snow Light Snow
1:35 PM 26.6 °F - 6.8 °F 43% 29.78 in 7.0 mi North - - N/A Snow Light Snow
3:15 PM 26.6 °F 15.2 °F 3.2 °F 37% 29.81 in 5.0 mi West 13.8 mph 24.2 mph N/A Snow Light Snow
3:35 PM 28.4 °F 21.2 °F 3.2 °F 34% 29.81 in 7.0 mi WNW 6.9 mph 19.6 mph N/A Snow Light Snow
3:55 PM 28.4 °F 16.6 °F 3.2 °F 34% 29.82 in 3.0 mi WNW 16.1 mph 26.5 mph N/A Snow Light Snow
4:15 PM 28.4 °F 16.6 °F 3.2 °F 34% 29.83 in 5.0 mi West 16.1 mph 23.0 mph N/A Snow Light Snow
4:35 PM 28.4 °F 18.0 °F 3.2 °F 34% 29.83 in 7.0 mi WNW 12.7 mph 20.7 mph N/A   Clear
4:55 PM 26.6 °F 16.2 °F 1.4 °F 34% 29.85 in 5.0 mi West 11.5 mph 23.0 mph N/A Snow Light Snow
5:15 PM 26.6 °F 17.5 °F 1.4 °F 34% 29.86 in 10.0 mi West 9.2 mph 26.5 mph N/A Snow Light Snow
5:35 PM 28.4 °F 19.7 °F 1.4 °F 31% 29.85 in 10.0 mi West 9.2 mph 19.6 mph N/A   Clear
5:55 PM 26.6 °F 18.2 °F 1.4 °F 34% 29.86 in 10.0 mi West 8.1 mph 19.6 mph N/A   Clear
6:15 PM 26.6 °F 16.8 °F 1.4 °F 34% 29.87 in 7.0 mi WNW 10.4 mph 20.7 mph N/A   Clear
6:35 PM 26.6 °F 17.5 °F 1.4 °F 34% 29.88 in 10.0 mi West 9.2 mph 19.6 mph N/A   Clear
6:55 PM 24.8 °F 15.3 °F 1.4 °F 36% 29.88 in 10.0 mi WNW 9.2 mph 18.4 mph N/A   Clear
7:15 PM 24.8 °F 14.0 °F 1.4 °F 36% 29.89 in 10.0 mi West 11.5 mph 19.6 mph N/A   Clear
7:35 PM 24.8 °F 12.9 °F -0.4 °F 34% 29.90 in 10.0 mi WNW 13.8 mph 21.9 mph N/A   Clear
7:55 PM 23.0 °F 11.7 °F -0.4 °F 36% 29.90 in 10.0 mi WNW 11.5 mph 16.1 mph N/A   Clear
8:15 PM 21.2 °F 13.6 °F -2.2 °F 36% 29.91 in 10.0 mi West 5.8 mph - N/A   Clear
8:35 PM 21.2 °F 16.4 °F -0.4 °F 39% 29.92 in 10.0 mi WNW 3.5 mph - N/A   Clear
8:55 PM 19.4 °F 12.8 °F -0.4 °F 42% 29.92 in 10.0 mi WNW 4.6 mph - N/A   Clear
9:15 PM 21.2 °F 10.1 °F -0.4 °F 39% 29.93 in 10.0 mi WNW 10.4 mph 17.3 mph N/A   Clear
9:35 PM 19.4 °F 9.5 °F -2.2 °F 39% 29.93 in 10.0 mi NW 8.1 mph - N/A   Clear
9:55 PM 19.4 °F 11.5 °F -0.4 °F 42% 29.93 in 10.0 mi NW 5.8 mph 21.9 mph N/A   Clear
10:15 PM 19.4 °F 8.6 °F -0.4 °F 42% 29.93 in 10.0 mi WNW 9.2 mph 19.6 mph N/A   Clear
10:35 PM 17.6 °F 8.2 °F -0.4 °F 45% 29.93 in 10.0 mi WNW 6.9 mph 19.6 mph N/A   Clear
10:55 PM 17.6 °F 6.4 °F -0.4 °F 45% 29.94 in 10.0 mi NW 9.2 mph 18.4 mph N/A   Clear
11:15 PM 17.6 °F 8.2 °F -0.4 °F 45% 29.94 in 10.0 mi WNW 6.9 mph 17.3 mph N/A   Clear
11:35 PM 15.8 °F 4.2 °F -0.4 °F 49% 29.94 in 10.0 mi WNW 9.2 mph - N/A   Clear
11:55 PM 15.8 °F 2.7 °F -0.4 °F 49% 29.94 in 10.0 mi NW 11.5 mph 17.3 mph N/A   Clear